N9AZZ Weather Reports


time (UTC)temp
C
wind
direction
speed
KPH
gust
KPH
rain 1hr
cm
rain 24hr
cm
rain mn
cm
humidity
%
barometer
mb
20260906131022 24 0 0.0 3.2 0.00 0.00 0.00 92 1015.7
20260906130521 24 250 0.0 3.2 0.00 0.00 0.00 92 1015.6
20260906130035 23 253 0.0 1.6 0.00 0.00 0.00 93 1015.6
20260906125521 23 272 0.0 1.6 0.00 0.00 0.00 93 1015.6
20260906125020 23 270 0.0 4.8 0.00 0.00 0.00 94 1015.6
20260906124016 23 0 0.0 0.0 0.00 0.00 0.00 94 1015.6
20260906123519 23 0 0.0 0.0 0.00 0.00 0.00 94 1015.3
20260906123040 23 0 0.0 0.0 0.00 0.00 0.00 94 1015.4
20260906122518 23 0 0.0 0.0 0.00 0.00 0.00 94 1015.2
20260906122020 23 0 0.0 0.0 0.00 0.00 0.00 94 1015.2
20260906120522 23 0 0.0 0.0 0.00 0.00 0.00 94 1015.1
20260906115522 23 0 0.0 0.0 0.00 0.00 0.00 95 1015.1
20260906115018 23 0 0.0 0.0 0.00 0.00 0.00 95 1015.0
20260906114537 23 0 0.0 0.0 0.00 0.00 0.00 95 1015.1
20260906114018 23 0 0.0 0.0 0.00 0.00 0.00 95 1015.2
20260906113516 23 0 0.0 0.0 0.00 0.00 0.00 95 1015.2
20260906113035 23 0 0.0 0.0 0.00 0.00 0.00 95 1015.1
20260906112518 23 0 0.0 0.0 0.00 0.00 0.00 94 1014.9
20260906112018 23 0 0.0 0.0 0.00 0.00 0.00 94 1014.9
20260906111018 23 0 0.0 0.0 0.00 0.00 0.00 94 1014.7
20260906110521 23 0 0.0 0.0 0.00 0.00 0.00 94 1014.6
20260906105519 23 0 0.0 0.0 0.00 0.00 0.00 94 1014.4
20260906105022 23 0 0.0 0.0 0.00 0.00 0.00 94 1014.2
20260906104018 23 0 0.0 0.0 0.00 0.00 0.00 94 1014.1
20260906103519 23 0 0.0 0.0 0.00 0.00 0.00 94 1014.2
20260906103036 23 0 0.0 0.0 0.00 0.00 0.00 94 1014.2
20260906102521 24 0 0.0 0.0 0.00 0.00 0.00 94 1014.0
20260906101535 24 0 0.0 0.0 0.00 0.00 0.00 94 1013.9
20260906101020 24 0 0.0 0.0 0.00 0.00 0.00 94 1013.9
20260906100520 24 0 0.0 0.0 0.00 0.00 0.00 94 1013.8
20260906095519 24 0 0.0 0.0 0.00 0.00 0.00 94 1013.8
20260906095016 24 0 0.0 0.0 0.00 0.00 0.00 94 1013.7
20260906094018 24 0 0.0 0.0 0.00 0.00 0.00 94 1013.5
20260906093519 24 0 0.0 0.0 0.00 0.00 0.00 94 1013.5
20260906092517 24 0 0.0 0.0 0.00 0.00 0.00 94 1013.4
20260906092021 25 0 0.0 0.0 0.00 0.00 0.00 93 1013.4
20260906091019 25 0 0.0 0.0 0.00 0.00 0.00 93 1013.2
20260906090517 25 0 0.0 0.0 0.00 0.00 0.00 93 1013.2
20260906090039 25 0 0.0 0.0 0.00 0.00 0.00 93 1013.2
20260906085517 25 0 0.0 0.0 0.00 0.00 0.00 93 1013.1
20260906085021 25 0 0.0 0.0 0.00 0.00 0.00 93 1013.1
20260906084536 25 0 0.0 0.0 0.00 0.00 0.00 93 1013.0
20260906084017 25 0 0.0 0.0 0.00 0.00 0.00 93 1013.0
20260906083519 25 0 0.0 0.0 0.00 0.00 0.00 93 1013.1
20260906082519 25 0 0.0 0.0 0.00 0.00 0.00 92 1012.8
20260906082019 25 0 0.0 0.0 0.00 0.00 0.00 92 1012.9
20260906081053 25 0 0.0 0.0 0.00 0.00 0.00 92 1012.7
20260906080516 25 0 0.0 0.0 0.00 0.00 0.00 92 1012.9
20260906080034 25 0 0.0 0.0 0.00 0.00 0.00 92 1012.9
20260906075518 25 0 0.0 0.0 0.00 0.00 0.00 91 1012.9
20260906075018 25 0 0.0 0.0 0.00 0.00 0.00 91 1013.0
20260906074534 25 0 0.0 0.0 0.00 0.00 0.00 91 1013.0
20260906074020 25 0 0.0 0.0 0.00 0.00 0.00 91 1012.9
20260906073521 25 0 0.0 0.0 0.00 0.00 0.00 91 1012.9
20260906072522 25 0 0.0 0.0 0.00 0.00 0.00 91 1013.0
20260906072019 25 0 0.0 0.0 0.00 0.00 0.00 90 1013.0
20260906071016 25 0 0.0 0.0 0.00 0.00 0.00 90 1013.2
20260906070519 25 0 0.0 0.0 0.00 0.00 0.00 90 1013.1
20260906065521 25 0 0.0 0.0 0.00 0.00 0.00 90 1013.2
20260906065020 25 0 0.0 0.0 0.00 0.00 0.00 90 1013.2
20260906064019 25 0 0.0 0.0 0.00 0.00 0.00 90 1013.3
20260906063520 25 0 0.0 0.0 0.00 0.00 0.00 89 1013.4
20260906063037 25 0 0.0 0.0 0.00 0.00 0.00 89 1013.5
20260906062518 25 0 0.0 0.0 0.00 0.00 0.00 89 1013.5
20260906062017 25 0 0.0 0.0 0.00 0.00 0.00 89 1013.6
20260906061534 25 0 0.0 0.0 0.00 0.00 0.00 89 1013.5
20260906061021 25 0 0.0 0.0 0.00 0.00 0.00 89 1013.5
20260906060521 25 0 0.0 0.0 0.00 0.00 0.00 89 1013.6
20260906055520 25 0 0.0 0.0 0.00 0.00 0.00 89 1013.5
20260906055016 25 0 0.0 0.0 0.00 0.00 0.00 89 1013.5
20260906054016 25 0 0.0 0.0 0.00 0.00 0.00 88 1013.6
20260906053518 25 0 0.0 0.0 0.00 0.00 0.00 88 1013.5
20260906053041 25 0 0.0 0.0 0.00 0.00 0.00 88 1013.6
20260906052516 25 0 0.0 0.0 0.00 0.00 0.00 88 1013.6
20260906052018 25 0 0.0 0.0 0.00 0.00 0.00 88 1013.5
20260906051533 25 0 0.0 0.0 0.00 0.00 0.00 88 1013.4
20260906051021 25 0 0.0 0.0 0.00 0.00 0.00 88 1013.5
20260906050520 25 0 0.0 0.0 0.00 0.00 0.00 88 1013.3
20260906045522 25 0 0.0 0.0 0.00 0.00 0.00 88 1013.4
20260906045016 25 0 0.0 0.0 0.00 0.00 0.00 88 1013.4
20260906044017 25 0 0.0 0.0 0.00 0.00 0.00 88 1013.2
20260906043518 25 0 0.0 0.0 0.00 0.00 0.00 88 1013.1
20260906042521 26 0 0.0 0.0 0.00 0.00 0.00 88 1013.0
20260906042021 26 0 0.0 0.0 0.00 0.00 0.00 88 1013.0
20260906041021 26 0 0.0 0.0 0.00 0.00 0.00 88 1012.9
20260906040519 26 0 0.0 0.0 0.00 0.00 0.00 88 1012.8
20260906035519 26 0 0.0 0.0 0.00 0.00 0.00 88 1012.9
20260906035019 26 0 0.0 0.0 0.00 0.00 0.00 87 1012.8
20260906034020 26 0 0.0 0.0 0.00 0.00 0.00 85 1012.9
20260906033518 26 0 0.0 0.0 0.00 0.00 0.00 85 1012.8
20260906032518 26 0 0.0 0.0 0.00 0.00 0.00 84 1012.8
20260906032021 26 0 0.0 0.0 0.00 0.00 0.00 85 1012.8
20260906031016 26 0 0.0 0.0 0.00 0.00 0.00 84 1012.8
20260906030517 26 0 0.0 0.0 0.00 0.00 0.00 83 1012.8
20260906025520 27 0 0.0 0.0 0.00 0.00 0.00 81 1012.6
20260906025017 27 0 0.0 0.0 0.00 0.00 0.00 82 1012.6
20260906024021 27 0 0.0 0.0 0.00 0.00 0.00 81 1012.7
20260906023521 27 0 0.0 0.0 0.00 0.00 0.00 80 1012.6
20260906022518 27 0 0.0 0.0 0.00 0.00 0.00 79 1012.7
20260906022021 27 0 0.0 0.0 0.00 0.00 0.00 78 1012.6
20260906021020 28 0 0.0 0.0 0.00 0.00 0.00 78 1012.4
20260906020517 28 0 0.0 0.0 0.00 0.00 0.00 78 1012.3
20260906015519 28 0 0.0 0.0 0.00 0.00 0.00 78 1012.3
20260906015018 28 0 0.0 0.0 0.00 0.00 0.00 78 1012.1
20260906014020 28 0 0.0 0.0 0.00 0.00 0.00 77 1011.9
20260906013542 28 0 0.0 0.0 0.00 0.00 0.00 76 1011.8
20260906012522 28 0 0.0 0.0 0.00 0.00 0.00 75 1011.9
20260906012016 28 0 0.0 0.0 0.00 0.00 0.00 75 1011.9
20260906011550 28 0 0.0 1.6 0.00 0.00 0.00 74 1011.8
20260906011017 29 0 0.0 1.6 0.00 0.00 0.00 74 1011.7
20260906010516 29 0 0.0 0.0 0.00 0.00 0.00 72 1011.7
20260906010036 29 0 0.0 0.0 0.00 0.00 0.00 71 1011.8
20260906005521 30 0 0.0 0.0 0.00 0.00 0.00 71 1011.7
20260906005021 30 0 0.0 0.0 0.00 0.00 0.00 72 1011.8
20260906004535 30 0 0.0 0.0 0.00 0.00 0.00 68 1011.6
20260906004026 30 0 0.0 0.0 0.00 0.00 0.00 68 1011.5
20260906003517 30 0 0.0 1.6 0.00 0.00 0.00 67 1011.5
20260906002516 31 0 0.0 1.6 0.00 0.00 0.00 65 1011.3
20260906002018 31 0 0.0 0.0 0.00 0.00 0.00 65 1011.4
20260906001535 31 0 0.0 3.2 0.00 0.00 0.00 65 1011.4
20260906001017 31 0 0.0 3.2 0.00 0.00 0.00 64 1011.3
20260906000517 31 0 0.0 1.6 0.00 0.00 0.00 64 1011.3
20260906000035 32 235 0.0 1.6 0.00 0.00 0.00 64 1011.5
20260905235516 32 0 0.0 0.0 0.00 0.00 0.00 63 1011.4
20260905235021 32 0 0.0 0.0 0.00 0.00 0.00 63 1011.5
20260905234543 32 0 0.0 1.6 0.00 0.00 0.00 62 1011.6
20260905234017 32 0 0.0 1.6 0.00 0.00 0.00 63 1011.4
20260905233517 33 0 0.0 1.6 0.00 0.00 0.00 61 1011.6
20260905233034 33 0 0.0 3.2 0.00 0.00 0.00 61 1011.6
20260905232517 33 0 0.0 3.2 0.00 0.00 0.00 60 1011.9
20260905232019 33 259 0.0 1.6 0.00 0.00 0.00 59 1011.8
20260905231535 34 237 0.0 1.6 0.00 0.00 0.00 58 1011.7
20260905231015 34 0 0.0 1.6 0.00 0.00 0.00 58 1011.6
20260905230521 35 0 0.0 3.2 0.00 0.00 0.00 58 1011.6
20260905230042 35 0 0.0 3.2 0.00 0.00 0.00 58 1011.6
20260905225516 35 236 0.0 9.7 0.00 0.00 0.00 56 1011.5
20260905225019 35 307 1.6 9.7 0.00 0.00 0.00 56 1011.5
20260905224537 35 234 1.6 12.9 0.00 0.00 0.00 55 1011.4
20260905224020 35 265 3.2 12.9 0.00 0.00 0.00 55 1011.2
20260905223522 36 231 0.0 6.4 0.00 0.00 0.00 56 1011.3
20260905223037 36 288 1.6 6.4 0.00 0.00 0.00 54 1011.4
20260905222520 36 308 1.6 4.8 0.00 0.00 0.00 53 1011.5
20260905222016 36 243 0.0 4.8 0.00 0.00 0.00 54 1011.4
20260905221535 36 311 1.6 4.8 0.00 0.00 0.00 51 1011.3
20260905221019 36 34 1.6 4.8 0.00 0.00 0.00 53 1011.1
20260905220523 36 0 0.0 1.6 0.00 0.00 0.00 57 1011.1
20260905215524 36 0 0.0 1.6 0.00 0.00 0.00 54 1011.2
20260905215019 37 0 0.0 1.6 0.00 0.00 0.00 56 1011.2
20260905214018 37 30 0.0 1.6 0.00 0.00 0.00 56 1011.3
20260905213516 37 0 0.0 1.6 0.00 0.00 0.00 53 1011.3
20260905212518 37 0 0.0 3.2 0.00 0.00 0.00 53 1011.3
20260905212018 37 0 0.0 3.2 0.00 0.00 0.00 52 1011.2
20260905211023 37 316 1.6 3.2 0.00 0.00 0.00 50 1011.4
20260905210521 37 0 0.0 1.6 0.00 0.00 0.00 51 1011.5
20260905205516 37 0 0.0 4.8 0.00 0.00 0.00 52 1011.6
20260905205021 37 307 0.0 4.8 0.00 0.00 0.00 53 1011.7
20260905204537 37 226 0.0 4.8 0.00 0.00 0.00 52 1011.7
20260905204016 36 314 0.0 3.2 0.00 0.00 0.00 51 1011.7
20260905203516 36 301 1.6 3.2 0.00 0.00 0.00 53 1011.8
20260905202521 36 0 0.0 0.0 0.00 0.00 0.00 57 1011.9
20260905202020 37 0 0.0 1.6 0.00 0.00 0.00 56 1011.9
20260905201019 37 6 1.6 4.8 0.00 0.00 0.00 52 1011.9
20260905200521 37 0 0.0 3.2 0.00 0.00 0.00 54 1012.0
20260905195525 37 1 0.0 1.6 0.00 0.00 0.00 51 1012.0
20260905195022 38 345 0.0 3.2 0.00 0.00 0.00 53 1012.1
20260905194018 38 19 1.6 4.8 0.00 0.00 0.00 50 1012.3
20260905193516 38 50 0.0 6.4 0.00 0.00 0.00 50 1012.3
20260905193038 38 0 1.6 6.4 0.00 0.00 0.00 47 1012.3
20260905192518 38 315 0.0 3.2 0.00 0.00 0.00 49 1012.4
20260905192025 38 210 0.0 8.0 0.00 0.00 0.00 50 1012.4
20260905191021 38 233 0.0 4.8 0.00 0.00 0.00 51 1012.6
20260905190520 38 0 0.0 4.8 0.00 0.00 0.00 49 1012.7
20260905185521 38 300 1.6 4.8 0.00 0.00 0.00 47 1012.9
20260905185020 38 306 1.6 4.8 0.00 0.00 0.00 50 1013.1
20260905184019 38 216 0.0 4.8 0.00 0.00 0.00 50 1013.0
20260905183519 38 218 1.6 6.4 0.00 0.00 0.00 51 1013.1
20260905183033 38 45 0.0 6.4 0.00 0.00 0.00 53 1013.2
20260905182521 38 315 1.6 6.4 0.00 0.00 0.00 51 1013.2
20260905182021 38 0 1.6 8.0 0.00 0.00 0.00 53 1013.2
20260905181019 38 15 0.0 8.0 0.00 0.00 0.00 52 1013.4
20260905180519 38 289 3.2 8.0 0.00 0.00 0.00 48 1013.4
20260905180037 38 313 1.6 9.7 0.00 0.00 0.00 51 1013.5
20260905175524 38 326 1.6 9.7 0.00 0.00 0.00 52 1013.5
20260905175021 38 248 3.2 4.8 0.00 0.00 0.00 51 1013.7
20260905174533 38 306 1.6 6.4 0.00 0.00 0.00 56 1013.6
20260905174021 37 292 1.6 6.4 0.00 0.00 0.00 54 1013.6
20260905173521 37 0 0.0 4.8 0.00 0.00 0.00 53 1013.6
20260905172519 37 300 1.6 4.8 0.00 0.00 0.00 51 1013.7
20260905172020 37 0 0.0 4.8 0.00 0.00 0.00 53 1013.6
20260905171539 37 272 1.6 9.7 0.00 0.00 0.00 51 1013.8
20260905171017 37 275 1.6 11.3 0.00 0.00 0.00 51 1013.9
20260905170516 37 296 1.6 11.3 0.00 0.00 0.00 54 1014.0
20260905170035 37 211 3.2 11.3 0.00 0.00 0.00 53 1014.0
20260905165019 37 288 1.6 6.4 0.00 0.00 0.00 53 1014.3
20260905164021 37 216 1.6 4.8 0.00 0.00 0.00 59 1014.4
20260905163521 36 0 0.0 6.4 0.00 0.00 0.00 57 1014.5
20260905163035 36 0 1.6 6.4 0.00 0.00 0.00 59 1014.5
20260905162519 36 302 3.2 6.4 0.00 0.00 0.00 56 1014.6
20260905162018 36 341 3.2 6.4 0.00 0.00 0.00 56 1014.7
20260905161537 36 52 0.0 4.8 0.00 0.00 0.00 59 1014.7
20260905161021 36 300 1.6 4.8 0.00 0.00 0.00 57 1014.7
20260905160521 36 298 1.6 6.4 0.00 0.00 0.00 56 1014.9
20260905155521 36 60 1.6 8.0 0.00 0.00 0.00 58 1014.9
20260905155020 36 39 1.6 3.2 0.00 0.00 0.00 62 1014.8
20260905154019 35 252 0.0 4.8 0.00 0.00 0.00 61 1014.9
20260905153517 35 323 0.0 4.8 0.00 0.00 0.00 62 1014.9
20260905152521 35 273 1.6 3.2 0.00 0.00 0.00 61 1014.9
20260905152021 35 47 0.0 3.2 0.00 0.00 0.00 63 1014.8
20260905151021 34 323 1.6 4.8 0.00 0.00 0.00 65 1014.8
20260905150521 34 0 0.0 3.2 0.00 0.00 0.00 68 1014.7
20260905145516 34 237 0.0 3.2 0.00 0.00 0.00 65 1014.8
20260905145019 33 0 0.0 4.8 0.00 0.00 0.00 68 1014.8
20260905144538 33 11 0.0 6.4 0.00 0.00 0.00 68 1014.8
20260905144018 33 0 1.6 6.4 0.00 0.00 0.00 67 1014.7
20260905143516 33 358 1.6 3.2 0.00 0.00 0.00 67 1014.7
20260905142520 32 221 0.0 3.2 0.00 0.00 0.00 69 1014.8
20260905142018 32 0 0.0 3.2 0.00 0.00 0.00 68 1014.9
20260905141019 32 0 0.0 3.2 0.00 0.00 0.00 73 1015.1
20260905140516 32 0 0.0 1.6 0.00 0.00 0.00 76 1015.0
20260905140034 31 0 0.0 1.6 0.00 0.00 0.00 80 1015.1
20260905135521 30 0 0.0 1.6 0.00 0.00 0.00 80 1015.1
20260905135021 30 0 0.0 1.6 0.00 0.00 0.00 84 1015.2
20260905134021 28 0 0.0 1.6 0.00 0.00 0.00 90 1015.0
20260905133520 27 0 0.0 1.6 0.00 0.00 0.00 93 1015.2
20260905132519 26 0 0.0 0.0 0.00 0.00 0.00 97 1015.2
20260905132020 26 0 0.0 0.0 0.00 0.00 0.00 98 1015.0
20260905131553 25 0 0.0 0.0 0.00 0.00 0.00 98 1015.1